Location: Unspecified
(61.7773°N, 0.0000°E)
Time: 01:06:40
(UTC+00:00)

deb HAPS - Visible Passes

Search period start: 04 April 2026 00:00
Search period end: 14 April 2026 00:00
Orbit: 538 x 1325 km, 81.5° (Epoch: 28 March)

Date Brightness Start Highest point End Pass type
(mag) Time Alt. Az. Time Alt. Az. Time Alt. Az.
4 Apr ? 00:17:01 10° E 00:20:49 14° ENE 00:24:43 10° NNE visible
4 Apr ? 01:56:24 10° SSE 02:03:23 41° E 02:10:50 10° NNE visible
4 Apr ? 03:39:54 10° SSW 03:47:36 80° WNW 03:55:52 10° NNE visible
5 Apr ? 00:27:39 10° ESE 00:32:29 18° ENE 00:37:26 10° NNE visible
5 Apr ? 02:08:02 10° SSE 02:15:21 49° E 02:23:07 10° NNE visible
5 Apr ? 03:52:09 10° SSW 03:59:54 68° WNW 04:08:06 10° NNE visible
6 Apr ? 00:38:35 10° ESE 00:44:11 22° ENE 00:49:56 10° NNE visible
6 Apr ? 02:19:50 10° S 02:27:23 59° E 02:35:21 10° NNE visible
6 Apr ? 04:04:31 10° SW 04:12:15 58° WNW 04:20:18 10° NNE visible
7 Apr ? 00:49:43 10° SE 00:55:57 27° ENE 01:02:21 10° NNE visible
7 Apr ? 02:32:03 12° S 02:39:28 71° E 02:47:35 10° NNE visible
7 Apr ? 04:17:00 10° SW 04:24:40 49° NW 04:32:32 10° NNE visible
7 Apr ? 23:23:39 10° ENE 23:25:31 11° ENE 23:27:23 10° NE visible
8 Apr ? 01:01:02 10° SE 01:07:47 32° E 01:14:40 10° NNE visible
8 Apr ? 02:44:14 12° S 02:51:36 84° ESE 02:59:48 10° NNE visible
8 Apr ? 23:33:29 10° E 23:37:05 14° ENE 23:40:43 10° NE visible
9 Apr ? 01:12:41 11° SSE 01:19:40 39° E 01:26:57 10° NNE visible
9 Apr ? 02:56:24 13° SSW 03:03:49 83° WNW 03:11:59 10° NNE visible
9 Apr ? 23:44:01 10° ESE 23:48:43 17° ENE 23:53:26 10° NNE visible
10 Apr ? 01:24:50 13° SSE 01:31:36 47° E 01:39:12 10° NNE visible
10 Apr ? 03:08:33 12° SSW 03:16:05 71° WNW 03:24:10 10° NNE visible
10 Apr ? 23:54:52 10° ESE 00:00:24 21° ENE 00:05:56 10° NNE visible
11 Apr ? 01:36:58 15° SSE 01:43:35 56° E 01:51:24 10° NNE visible
11 Apr ? 03:20:41 11° SW 03:28:22 61° WNW 03:36:19 10° NNE visible
12 Apr ? 00:05:57 10° SE 00:12:09 25° ENE 00:18:19 10° NNE visible
12 Apr ? 01:49:05 17° S 01:55:39 67° E 02:03:35 10° NNE visible
12 Apr ? 03:32:51 10° SW 03:40:44 52° WNW 03:48:28 10° NNE visible
12 Apr ? 22:41:11 10° ENE 22:41:41 10° ENE 22:42:11 10° NE visible
13 Apr ? 00:17:27 11° SE 00:23:57 31° E 00:30:36 10° NNE visible
13 Apr ? 02:01:11 17° S 02:07:45 80° ESE 02:15:44 10° NNE visible
13 Apr ? 03:45:24 10° SW 03:53:07 44° NW 04:00:37 10° NNE visible
13 Apr ? 22:50:05 10° E 22:53:14 13° ENE 22:56:21 10° NE visible
